Location: Street
(51.1247°N, 2.7429°W)
Time: 17:34:23
(UTC+00:00)

Courier 1B Rocket - Pass Details

Date: 30 November 2020
Orbit: 920 x 1202 km, 28.2° (Epoch: 14 January)

Event Time Altitude Azimuth Distance (km) Brightness Sun altitude
Rises 06:34:43 0° 223° (SW) 4,092 8.0 -11.5°
Reaches altitude 10° 06:40:14 10° 192° (SSW) 3,114 7.8 -10.7°
Maximum altitude 06:42:21 11° 176° (S) 3,005 7.9 -10.4°
Drops below altitude 10° 06:44:28 10° 160° (SSE) 3,087 8.3 -10.1°
Sets 06:49:51 0° 129° (SE) 3,995 10.0 -9.3°
